CAPE
0 0 2 0 0 0 0 0 0 0 0 0 0 0 0 0 0 0 0 0 0 0 9 15 17 16 9 7 0 0 6 1 0 0 0 0 0 0 7 0 0 0 1
0 0 0 0 0 0 0 0 0 0 0 0 0 0 0 0 0 0 0 0 0 0 0 0 17 24 17 4 8 0 0 0 0 0 3 4 0 2 8 6 0 1 4
19 0 14 3 0 0 0 0 0 0 0 0 0 0 0 0 0 0 0 0 0 0 0 0 0 8 31 14 4 6 0 0 0 0 7 0 0 1 1 0 2 8 14
47 54 55 55 13 1 0 0 0 0 0 0 0 0 0 0 0 0 0 0 0 0 0 0 3 65 50 32 4 0 1 4 18 21 0 0 0 0 0 1 2 4 3
127 100 80 46 13 0 0 0 0 0 0 0 0 0 0 0 0 0 0 0 0 0 0 0 0 0 0 7 26 25 27 16 2 0 1 0 0 0 0 0 1 5 9
57 119 89 12 0 0 0 0 0 0 0 0 0 0 0 0 0 0 0 0 0 0 0 0 0 0 0 0 0 0 2 3 0 0 0 0 0 0 0 0 1 7 15
47 66 122 7 0 0 0 0 0 0 0 0 0 0 0 0 0 0 0 0 0 0 0 0 0 0 0 0 0 0 0 0 0 0 0 0 0 0 0 0 0 0 6
26 37 63 25 0 0 0 0 0 0 0 0 0 0 0 0 0 0 0 0 0 0 0 0 0 0 0 0 0 0 0 0 0 0 0 0 0 0 0 0 0 5 22
0 33 61 24 0 0 0 0 0 0 0 0 0 0 0 0 0 0 0 0 0 0 0 0 0 0 0 0 0 0 0 0 0 0 0 0 0 0 0 0 0 4 13
0 36 63 8 0 0 0 0 0 0 0 0 0 0 0 0 0 0 0 0 0 0 0 0 0 0 0 0 0 0 0 0 0 0 0 0 0 0 0 0 0 0 6
17 22 33 2 0 0 0 0 0 0 0 0 0 0 0 0 0 0 0 0 0 0 0 0 0 0 0 0 0 0 0 0 0 0 0 0 0 0 0 0 0 1 7
19 27 73 41 2 0 0 0 0 0 0 0 0 0 0 0 0 0 0 0 0 0 0 0 0 0 0 0 0 0 0 0 0 0 0 0 0 0 0 0 0 2 5
31 20 37 54 28 0 0 0 0 0 0 0 0 0 0 0 0 0 0 0 0 0 0 0 0 0 0 0 0 0 0 0 0 0 3 0 0 0 0 0 0 0 0
2 0 0 0 0 0 0 0 0 0 0 0 0 0 0 0 0 0 0 0 0 0 0 0 0 0 0 0 0 0 0 0 0 0 0 1 0 0 0 0 0 0 0
0 0 0 0 0 0 0 0 0 0 0 0 0 0 0 0 0 0 0 0 0 0 0 0 0 0 0 0 0 0 0 0 0 0 0 0 1 0 0 0 0 0 0
0 0 0 0 0 0 0 0 0 0 0 0 0 0 0 0 0 0 0 0 0 0 0 0 0 0 0 0 0 0 0 0 0 0 0 0 0 5 8 1 1 0 0
0 0 0 0 0 0 0 0 0 0 0 0 0 0 0 0 0 0 0 0 0 0 0 0 0 0 0 0 0 0 0 0 0 0 0 0 0 0 0 4 7 0 0
0 0 0 0 0 0 0 0 0 0 0 0 0 0 0 0 0 0 0 0 0 0 0 0 0 0 0 0 0 0 0 0 0 0 0 0 0 0 0 0 0 0 0
0 0 0 0 0 0 0 0 0 0 0 0 0 0 0 0 0 0 0 0 0 0 0 0 0 0 0 0 0 0 0 0 0 0 0 0 0 0 0 0 0 0 0
0 0 0 0 0 0 0 0 0 0 0 0 0 0 0 0 0 0 0 0 0 0 0 0 0 0 0 0 0 0 0 0 0 0 0 0 0 0 0 0 3 0 5
0 0 0 0 0 0 0 0 0 0 0 0 0 0 0 0 0 0 0 0 0 0 0 0 0 0 0 0 0 0 0 0 0 0 0 0 0 0 0 0 0 3 2
0 0 0 0 0 0 0 0 0 0 0 0 0 0 0 0 0 0 0 0 0 0 0 0 0 0 0 0 0 0 0 0 0 0 0 0 0 0 0 0 0 0 0
0 0 0 0 0 0 0 0 0 0 0 0 0 0 0 0 0 0 0 0 0 0 0 0 0 0 0 0 0 0 0 0 0 0 0 0 0 0 0 0 0 0 0
0 0 0 0 0 0 0 0 0 0 0 0 0 0 0 0 0 0 0 0 0 0 0 0 0 0 0 0 5 4 2 7 6 0 0 0 0 0 0 0 0 0 0
0 0 0 0 0 0 0 0 0 0 0 0 0 0 0 0 0 0 0 0 0 0 0 0 0 0 0 0 0 7 3 3 2 0 0 0 0 0 0 0 0 0 0
0 0 0 0 0 0 0 0 0 0 0 0 0 0 0 0 0 0 0 0 0 0 0 0 1 0 0 0 0 0 0 14 6 0 0 0 0 0 0 0 0 0 0
CIN
-0 -124 -132 -0 -0 -0 -0 -0 -0 -0 -0 -0 -0 -0 -0 -0 -0 -0 -0 -0 -0 -0 -0 -0 -0 -0 -0 -0 -0 -0 -0 -0 -0 -0 -0 -0 -0 -0 -0 -0 -0 -0 -0
-0 -0 -0 -0 -0 -0 -0 -0 -0 -0 -0 -0 -0 -0 -0 -0 -0 -0 -0 -0 -0 -0 -0 -0 -0 -0 -0 -0 -0 -0 -0 -0 -0 -0 -1 -0 -0 -0 -1 -0 -0 -0 -1
-297 -0 -263 -131 -0 -0 -0 -0 -0 -0 -0 -0 -0 -0 -0 -0 -0 -0 -0 -0 -0 -0 -0 -0 -0 -0 -0 -0 -1 -0 -0 -0 -0 -0 -1 -0 -0 -0 -1 -0 -1 -0 -0
-179 -177 -163 -187 -221 -184 -0 -0 -0 -0 -0 -0 -0 -0 -0 -0 -0 -0 -0 -0 -0 -0 -0 -0 -0 -1 -0 -0 -0 -0 -0 -0 -0 -0 -0 -0 -0 -0 -1 -1 -0 -0 -0
-120 -124 -153 -194 -232 -0 -0 -0 -0 -0 -0 -0 -0 -0 -0 -0 -0 -0 -0 -0 -0 -0 -0 -0 -0 -0 -0 -3 -2 -0 -0 -0 -1 -0 -0 -0 -0 -0 -0 -0 -0 -0 -0
-95 -129 -138 -181 -0 -0 -0 -0 -0 -0 -0 -0 -0 -0 -0 -0 -0 -0 -0 -0 -0 -0 -0 -0 -0 -0 -0 -0 -0 -0 -0 -0 -0 -0 -0 -0 -0 -0 -0 -0 -0 -0 -0
-128 -138 -122 -81 -0 -0 -0 -0 -0 -0 -0 -0 -0 -0 -0 -0 -0 -0 -0 -0 -0 -0 -0 -0 -0 -0 -0 -0 -0 -0 -0 -0 -0 -0 -0 -0 -0 -0 -0 -0 -0 -0 -0
-131 -150 -148 -211 -0 -0 -0 -0 -0 -0 -0 -0 -0 -0 -0 -0 -0 -0 -0 -0 -0 -0 -0 -0 -0 -0 -0 -0 -0 -0 -0 -0 -0 -0 -0 -0 -0 -0 -0 -0 -0 -0 -0
-0 -126 -125 -150 -0 -0 -0 -0 -0 -0 -0 -0 -0 -0 -0 -0 -0 -0 -0 -0 -0 -0 -0 -0 -0 -0 -0 -0 -0 -0 -0 -0 -0 -0 -0 -0 -0 -0 -0 -0 -0 -0 -0
-0 -152 -135 -192 -0 -0 -0 -0 -0 -0 -0 -0 -0 -0 -0 -0 -0 -0 -0 -0 -0 -0 -0 -0 -0 -0 -0 -0 -0 -0 -0 -0 -0 -0 -0 -0 -0 -0 -0 -0 -0 -0 -0
-179 -160 -152 -104 -0 -0 -0 -0 -0 -0 -0 -0 -0 -0 -0 -0 -0 -0 -0 -0 -0 -0 -0 -0 -0 -0 -0 -0 -0 -0 -0 -0 -0 -0 -0 -0 -0 -0 -0 -0 -0 -0 -0
-238 -217 -172 -203 -102 -0 -0 -0 -0 -0 -0 -0 -0 -0 -0 -0 -0 -0 -0 -0 -0 -0 -0 -0 -0 -0 -0 -0 -0 -0 -0 -0 -0 -0 -0 -0 -0 -0 -0 -0 -0 -0 -0
-236 -232 -178 -165 -164 -0 -0 -0 -0 -0 -0 -0 -0 -0 -0 -0 -0 -0 -0 -0 -0 -0 -0 -0 -0 -0 -0 -0 -0 -0 -0 -0 -0 -0 -68 -24 -0 -0 -0 -0 -0 -0 -0
-94 -0 -0 -0 -0 -0 -0 -0 -0 -0 -0 -0 -0 -0 -0 -0 -0 -0 -0 -0 -0 -0 -0 -0 -0 -0 -0 -0 -0 -0 -0 -0 -0 -0 -12 -71 -0 -0 -0 -0 -0 -0 -0
-0 -0 -0 -0 -0 -0 -0 -0 -0 -0 -0 -0 -0 -0 -0 -0 -0 -0 -0 -0 -0 -0 -0 -0 -0 -0 -0 -0 -0 -0 -0 -0 -0 -0 -0 -5 -42 -0 -0 -0 -0 -0 -0
-0 -0 -0 -0 -0 -0 -0 -0 -0 -0 -0 -0 -0 -0 -0 -0 -0 -0 -0 -0 -0 -0 -0 -0 -0 -0 -0 -0 -0 -0 -0 -0 -0 -0 -0 -0 -0 -76 -55 -20 -12 -0 -0
-0 -0 -0 -0 -0 -0 -0 -0 -0 -0 -0 -0 -0 -0 -0 -0 -0 -0 -0 -0 -0 -0 -0 -0 -0 -0 -0 -0 -0 -0 -0 -0 -0 -0 -0 -0 -0 -0 -0 -65 -63 -12 -0
-0 -0 -0 -0 -0 -0 -0 -0 -0 -0 -0 -0 -0 -0 -0 -0 -0 -0 -0 -0 -0 -0 -0 -0 -0 -0 -0 -0 -0 -0 -0 -0 -0 -0 -0 -0 -0 -0 -0 -0 -0 -0 -0
-0 -0 -0 -0 -0 -0 -0 -0 -0 -0 -0 -0 -0 -0 -0 -0 -0 -0 -0 -0 -0 -0 -0 -0 -0 -0 -0 -0 -0 -0 -0 -0 -0 -0 -0 -0 -0 -0 -0 -0 -0 -0 -0
-0 -0 -0 -0 -0 -0 -0 -0 -0 -0 -0 -0 -0 -0 -0 -0 -0 -0 -0 -0 -0 -0 -0 -0 -0 -0 -0 -0 -0 -0 -0 -0 -0 -0 -0 -0 -0 -0 -4 -4 -51 -0 -50
-0 -0 -0 -0 -0 -0 -0 -0 -0 -0 -0 -0 -0 -0 -0 -0 -0 -0 -0 -0 -0 -0 -0 -0 -0 -0 -0 -0 -0 -0 -0 -0 -0 -0 -0 -0 -0 -0 -0 -14 -5 -22 -4
-0 -0 -0 -0 -0 -0 -0 -0 -0 -0 -0 -0 -0 -0 -0 -0 -0 -0 -0 -0 -0 -0 -0 -0 -0 -0 -0 -0 -0 -0 -0 -0 -0 -0 -0 -0 -0 -0 -0 -0 -0 -0 -0
-0 -0 -0 -0 -0 -0 -0 -0 -0 -0 -0 -0 -0 -0 -0 -0 -0 -0 -0 -0 -0 -0 -0 -0 -0 -0 -0 -0 -0 -0 -0 -0 -0 -0 -0 -0 -0 -0 -0 -0 -0 -0 -0
-0 -0 -0 -0 -0 -0 -0 -0 -0 -0 -0 -0 -0 -0 -0 -0 -0 -0 -0 -0 -0 -0 -0 -0 -0 -0 -0 -2 -2 -0 -0 -0 -0 -0 -0 -0 -0 -0 -0 -0 -0 -0 -0
-0 -0 -0 -0 -0 -0 -0 -0 -0 -0 -0 -0 -0 -0 -0 -0 -0 -0 -0 -0 -0 -0 -0 -0 -0 -0 -0 -0 -0 -0 -0 -3 -1 -0 -0 -0 -0 -0 -0 -0 -0 -0 -0
-0 -0 -0 -0 -0 -0 -0 -0 -0 -0 -0 -0 -0 -0 -0 -0 -0 -0 -0 -0 -0 -0 -0 -0 -0 -0 -0 -0 -0 -0 -0 -0 -1 -0 -0 -0 -0 -0 -0 -0 -0 -0 -0
Wind_Speed
7 6 5 4 4 4 4 4 3 4 5 5 4 7 5 6 5 3 2 5 5 6 9 10 10 10 10 10 8 7 7 6 6 5 6 4 3 3 9 7 6 7 9
7 6 4 5 4 4 4 4 5 5 5 5 5 4 6 5 5 5 3 2 6 5 5 5 10 11 10 9 8 7 5 5 4 2 2 6 3 3 5 6 3 7 8
7 6 4 4 4 4 6 4 3 3 4 3 5 5 5 6 5 5 4 3 3 5 4 2 6 10 11 11 8 7 6 6 5 5 1 3 4 6 7 7 9 10 11
7 5 5 5 4 4 4 4 4 4 4 4 3 4 4 4 6 6 5 4 4 3 4 5 5 7 10 11 10 10 8 9 8 6 2 3 4 4 5 7 9 10 12
6 6 4 5 6 5 5 6 3 4 4 3 4 4 4 4 5 3 6 5 6 5 4 6 9 9 8 8 10 12 10 7 4 5 5 3 4 5 6 7 9 11 13
5 5 4 4 4 4 4 4 4 2 3 4 4 4 2 3 3 4 5 4 5 6 5 5 4 5 9 10 11 11 10 9 8 6 2 1 3 5 7 9 12 14 15
6 5 4 6 6 6 6 6 4 5 3 3 4 2 2 3 4 3 4 5 6 6 6 5 4 4 4 9 12 12 11 9 5 4 5 3 1 2 6 9 12 14 17
7 6 6 6 7 5 6 6 5 3 3 4 4 2 2 3 2 4 3 4 6 4 5 6 6 5 5 4 7 13 12 9 10 10 9 7 4 3 5 9 12 15 17
6 7 7 5 6 5 6 5 6 8 5 4 3 4 2 5 1 1 4 4 5 5 5 6 6 6 6 5 7 9 11 13 15 14 13 10 8 5 7 9 11 15 17
9 9 9 8 8 6 6 6 5 5 4 5 1 1 1 4 3 1 1 3 5 6 5 4 5 6 6 5 9 10 14 14 15 16 14 12 10 7 7 9 11 13 16
9 11 9 8 8 8 8 7 6 6 3 4 4 3 3 4 2 1 2 4 1 3 3 4 4 4 5 6 6 9 16 15 15 17 16 14 12 10 9 10 12 15 17
6 9 9 7 4 5 7 6 4 6 6 4 4 4 4 5 3 2 3 3 2 4 2 3 3 5 5 5 9 16 19 18 17 18 18 17 14 12 11 12 13 15 16
4 9 9 7 7 6 8 9 7 6 7 7 7 5 3 4 3 3 3 1 2 2 2 2 3 3 4 3 5 11 18 18 18 19 20 19 17 15 14 15 14 15 15
8 8 8 6 7 8 7 6 4 5 8 8 9 7 4 3 2 2 3 3 3 3 2 5 3 3 3 3 8 15 8 17 18 20 19 19 19 17 18 17 15 15 15
5 9 9 8 8 9 9 9 6 8 8 6 6 5 4 4 3 2 2 2 3 2 4 4 4 5 4 4 7 7 9 17 21 21 21 21 20 21 21 18 18 16 16
4 7 7 8 7 8 8 9 7 7 8 5 4 7 4 3 4 2 3 3 3 3 5 4 5 5 5 4 6 8 10 19 21 23 22 22 22 22 21 20 20 18 17
7 7 8 8 8 8 8 8 8 9 9 7 6 7 5 4 0 1 1 1 3 3 7 4 4 4 3 5 7 5 9 9 9 23 23 24 23 24 22 21 20 19 18
10 10 9 8 8 8 8 9 10 9 10 10 10 9 6 4 4 2 1 4 4 4 4 10 5 4 6 6 7 6 7 8 9 15 23 26 25 24 22 21 19 18 18
9 7 7 8 9 9 9 8 9 10 9 11 10 8 7 5 4 2 2 4 4 5 6 7 8 3 4 4 6 6 8 8 7 18 15 18 26 24 22 19 17 18 19
9 7 7 8 8 9 9 9 9 9 9 8 6 6 5 6 4 3 4 5 5 4 5 6 7 7 4 5 4 6 7 4 7 8 14 15 18 25 20 18 19 17 15
7 8 8 7 8 9 7 10 8 8 9 7 6 5 6 4 4 5 3 5 5 4 5 6 6 5 4 3 5 4 5 8 6 3 6 6 8 7 5 9 12 13 14
7 8 8 9 9 6 14 12 10 8 8 8 6 4 3 1 4 5 7 5 2 2 4 3 4 7 9 6 4 7 7 3 9 4 5 4 5 4 7 6 11 12 14
7 7 8 8 7 7 11 12 11 6 6 5 4 2 2 4 5 5 6 6 5 6 4 5 8 8 9 5 6 9 7 9 10 7 3 9 4 8 10 8 13 13 13
9 8 8 8 8 6 13 12 12 7 6 5 5 5 5 4 5 4 4 5 5 5 7 6 8 11 10 10 10 12 13 13 11 7 4 7 3 6 5 5 11 11 9
7 6 7 8 8 7 12 13 9 6 6 6 5 6 5 4 8 10 4 5 7 7 8 13 16 19 21 21 16 10 11 10 11 9 6 6 4 3 4 4 5 9 7
7 7 6 6 8 7 11 12 9 5 6 4 4 5 8 5 8 10 5 5 7 8 9 9 9 10 13 13 18 11 8 11 10 3 6 7 4 4 3 2 2 3 3
Wind_Direction
141 137 146 129 133 142 150 152 148 136 128 120 100 110 121 141 142 133 102 130 159 146 172 163 164 159 157 153 142 130 143 120 90 69 92 101 96 41 15 64 53 37 25
144 126 148 144 167 167 160 163 156 155 154 135 119 121 130 151 152 135 135 176 169 151 150 175 183 182 173 166 167 156 153 142 134 154 115 33 86 333 13 24 10 11 0
128 133 153 150 185 181 169 166 154 144 133 143 150 155 152 157 141 152 174 178 131 106 115 151 199 209 189 184 179 192 186 178 205 259 19 356 2 18 24 8 357 350 339
134 167 167 173 196 198 172 156 162 164 159 166 171 195 177 160 166 170 172 165 151 134 118 121 144 159 191 203 199 207 210 213 234 260 350 311 343 11 2 349 344 340 335
151 160 169 169 179 180 164 167 183 144 159 181 194 197 207 187 199 166 160 169 174 160 158 151 142 141 165 198 218 219 226 231 237 251 281 349 5 359 349 341 330 322 318
196 148 159 156 170 155 166 173 158 151 165 177 189 187 197 233 216 183 175 174 190 177 171 180 171 186 195 205 222 230 233 235 254 271 66 35 3 357 340 329 320 316 315
201 172 178 160 159 184 192 183 149 165 178 152 102 27 273 248 243 234 210 178 191 187 187 191 188 194 217 220 222 225 227 239 254 158 172 153 99 333 321 317 313 310 306
209 196 185 186 178 173 190 186 166 134 168 177 149 120 213 311 315 231 223 231 199 183 196 210 197 198 213 202 209 222 222 214 196 191 181 175 184 261 296 303 306 303 304
221 207 188 175 181 183 196 194 180 170 178 187 210 150 137 216 354 333 236 235 210 211 205 204 211 204 202 196 203 220 199 191 200 198 194 190 194 227 279 298 301 301 301
213 206 198 177 187 200 203 198 181 179 152 178 198 142 54 138 168 288 318 247 218 226 219 233 225 217 194 198 205 195 183 190 201 206 202 202 210 238 266 284 291 291 292
205 208 196 185 189 187 208 200 179 188 189 156 150 132 41 22 63 20 222 275 253 273 262 220 230 246 228 193 194 200 193 193 199 204 209 213 218 229 253 271 284 290 293
194 197 194 185 170 217 191 199 201 189 192 140 140 147 149 171 177 165 237 270 241 289 270 240 239 245 234 215 205 203 197 193 197 204 213 214 221 230 245 257 277 289 292
189 203 184 174 195 199 185 183 188 189 160 150 149 150 163 156 154 167 173 232 261 295 308 320 267 247 234 188 234 219 202 196 199 206 213 217 220 229 237 254 273 280 290
205 181 179 175 178 185 170 163 174 156 149 151 162 160 166 140 136 141 143 155 257 231 267 248 258 243 243 223 216 207 215 212 206 211 215 219 223 225 234 246 260 269 280
192 180 173 166 179 180 170 163 158 153 156 156 148 135 133 142 124 132 146 168 187 262 254 263 252 243 240 229 230 201 209 219 217 214 215 219 221 224 232 240 247 254 263
182 198 166 168 190 171 157 157 149 146 141 127 128 131 129 128 130 168 193 197 202 225 271 208 243 244 263 256 232 207 218 225 224 222 218 219 219 224 230 235 242 245 252
179 218 188 169 173 163 154 151 145 145 139 139 137 136 133 132 48 295 338 315 259 215 265 270 232 249 244 260 275 234 232 227 230 225 223 222 219 224 228 232 236 238 243
185 192 174 166 162 159 153 144 149 153 151 149 148 151 154 168 198 220 276 265 249 260 232 279 241 247 231 247 251 262 254 243 242 236 231 229 221 223 228 228 230 232 237
178 181 169 168 166 156 151 154 152 151 155 152 158 162 168 170 203 215 273 267 274 282 281 280 284 248 253 256 270 264 256 243 235 251 239 225 231 228 223 232 225 229 235
166 172 182 164 152 142 138 140 141 146 152 165 157 149 176 194 200 245 250 274 280 270 277 281 287 284 247 253 241 270 279 249 259 241 240 230 227 231 223 219 227 230 237
153 151 135 125 130 132 143 144 148 156 153 153 150 178 203 177 219 241 276 287 291 280 289 294 290 290 273 271 245 249 251 282 281 242 257 261 219 198 222 232 225 222 230
135 131 135 131 128 140 147 142 143 151 153 164 170 198 167 274 345 33 58 38 352 309 296 277 281 279 283 273 273 272 273 252 278 199 212 226 179 258 269 233 216 225 238
127 117 119 125 131 133 141 143 142 141 139 143 152 120 44 70 60 25 6 1 337 324 280 261 274 269 282 283 291 291 273 265 263 262 206 254 200 239 237 221 222 233 248
133 134 135 138 134 138 149 146 122 123 113 99 93 97 99 54 55 25 3 343 319 301 290 292 290 293 280 291 286 285 282 276 273 268 194 245 168 231 223 243 240 244 224
127 134 141 143 144 151 153 136 118 106 98 93 81 68 70 48 7 5 352 311 303 298 300 300 293 290 287 282 278 291 289 276 272 261 196 219 191 209 212 226 234 214 206
128 132 123 99 97 100 108 111 107 110 103 94 80 69 44 25 353 337 324 312 312 308 300 296 302 288 280 273 272 261 266 276 278 251 203 193 171 174 260 249 201 179 190